Time,TemperatureF,DewpointF,PressureIn,WindDirection,WindDirectionDegrees,WindSpeedMPH,WindSpeedGustMPH,Humidity,HourlyPrecipIn,Conditions,Clouds,dailyrainin,SoftwareType,DateUTC
2013-01-02 00:00:00,16.3,5.9,29.89,SW,225,1.0,11.0,63,0.00,,,-99.99,Weather View 32 v60,2013-01-02 05:00:00,
2013-01-02 00:05:00,16.2,6.2,29.90,NW,315,3.0,11.0,64,0.00,,,-99.99,Weather View 32 v60,2013-01-02 05:05:00,
2013-01-02 00:10:00,16.1,6.1,29.90,WNW,293,2.0,11.0,64,0.00,,,-99.99,Weather View 32 v60,2013-01-02 05:10:00,
2013-01-02 00:15:00,16.0,6.0,29.90,NNW,338,3.0,11.0,64,0.00,,,-99.99,Weather View 32 v60,2013-01-02 05:15:00,
2013-01-02 00:20:00,16.0,6.0,29.90,WNW,293,3.0,8.0,64,0.00,,,-99.99,Weather View 32 v60,2013-01-02 05:20:00,
2013-01-02 00:25:00,15.9,5.9,29.91,WNW,293,3.0,8.0,64,0.00,,,-99.99,Weather View 32 v60,2013-01-02 05:25:00,
2013-01-02 00:30:00,15.8,5.8,29.91,WNW,293,4.0,8.0,64,0.00,,,-99.99,Weather View 32 v60,2013-01-02 05:30:00,
2013-01-02 00:35:00,15.8,5.8,29.91,WNW,293,2.0,8.0,64,0.00,,,-99.99,Weather View 32 v60,2013-01-02 05:35:00,
2013-01-02 00:40:00,15.7,5.7,29.92,NW,315,3.0,8.0,64,0.00,,,-99.99,Weather View 32 v60,2013-01-02 05:40:00,
2013-01-02 00:45:00,15.7,5.7,29.91,NW,315,3.0,8.0,64,0.00,,,-99.99,Weather View 32 v60,2013-01-02 05:45:00,
2013-01-02 00:50:00,15.6,5.6,29.92,WNW,293,3.0,8.0,64,0.00,,,-99.99,Weather View 32 v60,2013-01-02 05:50:00,
2013-01-02 00:55:00,15.5,5.5,29.92,WNW,293,3.0,8.0,64,0.00,,,-99.99,Weather View 32 v60,2013-01-02 05:55:00,
2013-01-02 01:00:00,15.5,5.5,29.92,WNW,293,4.0,7.0,64,0.00,,,-99.99,Weather View 32 v60,2013-01-02 06:00:00,
2013-01-02 01:05:00,15.4,5.7,29.92,NW,315,4.0,7.0,65,0.00,,,-99.99,Weather View 32 v60,2013-01-02 06:05:00,
2013-01-02 01:10:00,15.4,5.7,29.93,WNW,293,2.0,7.0,65,0.00,,,-99.99,Weather View 32 v60,2013-01-02 06:10:00,
2013-01-02 01:15:00,15.3,5.6,29.93,WNW,293,1.0,7.0,65,0.00,,,-99.99,Weather View 32 v60,2013-01-02 06:15:00,
2013-01-02 01:20:00,15.2,5.9,29.93,West,270,2.0,7.0,66,0.00,,,-99.99,Weather View 32 v60,2013-01-02 06:20:00,
2013-01-02 01:25:00,15.1,5.8,29.93,West,270,1.0,7.0,66,0.00,,,-99.99,Weather View 32 v60,2013-01-02 06:25:00,
2013-01-02 01:30:00,14.9,5.6,29.92,West,270,0.0,7.0,66,0.00,,,-99.99,Weather View 32 v60,2013-01-02 06:30:00,
2013-01-02 01:35:00,14.8,5.8,29.93,WNW,293,0.0,7.0,67,0.00,,,-99.99,Weather View 32 v60,2013-01-02 06:35:00,
2013-01-02 01:40:00,14.6,5.6,29.93,WSW,248,0.0,7.0,67,0.00,,,-99.99,Weather View 32 v60,2013-01-02 06:40:00,
2013-01-02 01:45:00,14.4,5.5,29.93,WSW,248,0.0,7.0,67,0.00,,,-99.99,Weather View 32 v60,2013-01-02 06:45:00,
2013-01-02 01:50:00,14.3,5.7,29.93,WSW,248,0.0,7.0,68,0.00,,,-99.99,Weather View 32 v60,2013-01-02 06:50:00,
2013-01-02 01:55:00,14.1,5.5,29.93,WSW,248,0.0,6.0,68,0.00,,,-99.99,Weather View 32 v60,2013-01-02 06:55:00,
2013-01-02 02:00:00,13.9,5.3,29.94,WSW,248,0.0,6.0,68,0.00,,,-99.99,Weather View 32 v60,2013-01-02 07:00:00,
2013-01-02 02:05:00,13.7,5.4,29.93,WSW,248,0.0,6.0,69,0.00,,,-99.99,Weather View 32 v60,2013-01-02 07:05:00,
2013-01-02 02:10:00,13.6,5.3,29.93,WSW,248,0.0,6.0,69,0.00,,,-99.99,Weather View 32 v60,2013-01-02 07:10:00,
2013-01-02 02:15:00,13.4,5.4,29.93,WSW,248,0.0,5.0,70,0.00,,,-99.99,Weather View 32 v60,2013-01-02 07:15:00,
2013-01-02 02:20:00,13.2,5.3,29.93,WSW,248,0.0,2.0,70,0.00,,,-99.99,Weather View 32 v60,2013-01-02 07:20:00,
2013-01-02 02:25:00,13.0,5.1,29.93,SSW,203,0.0,2.0,70,0.00,,,-99.99,Weather View 32 v60,2013-01-02 07:25:00,
2013-01-02 02:30:00,12.8,4.9,29.92,SW,225,0.0,1.0,70,0.00,,,-99.99,Weather View 32 v60,2013-01-02 07:30:00,
2013-01-02 02:35:00,12.7,5.1,29.92,SSW,203,0.0,1.0,71,0.00,,,-99.99,Weather View 32 v60,2013-01-02 07:35:00,
2013-01-02 02:40:00,12.6,5.0,29.92,SW,225,0.0,1.0,71,0.00,,,-99.99,Weather View 32 v60,2013-01-02 07:40:00,
2013-01-02 02:45:00,12.5,5.2,29.92,West,270,3.0,4.0,72,0.00,,,-99.99,Weather View 32 v60,2013-01-02 07:45:00,
2013-01-02 02:50:00,12.4,5.1,29.92,West,270,0.0,4.0,72,0.00,,,-99.99,Weather View 32 v60,2013-01-02 07:50:00,
2013-01-02 02:55:00,12.3,5.3,29.92,West,270,0.0,4.0,73,0.00,,,-99.99,Weather View 32 v60,2013-01-02 07:55:00,
2013-01-02 03:00:00,12.3,5.3,29.92,West,270,1.0,4.0,73,0.00,,,-99.99,Weather View 32 v60,2013-01-02 08:00:00,
2013-01-02 03:05:00,12.2,5.2,29.92,WNW,293,0.0,4.0,73,0.00,,,-99.99,Weather View 32 v60,2013-01-02 08:05:00,
2013-01-02 03:10:00,12.2,5.2,29.92,WNW,293,0.0,4.0,73,0.00,,,-99.99,Weather View 32 v60,2013-01-02 08:10:00,
2013-01-02 03:15:00,12.1,5.1,29.92,WNW,293,0.0,4.0,73,0.00,,,-99.99,Weather View 32 v60,2013-01-02 08:15:00,
2013-01-02 03:20:00,12.0,5.0,29.91,WNW,293,0.0,4.0,73,0.00,,,-99.99,Weather View 32 v60,2013-01-02 08:20:00,
2013-01-02 03:25:00,12.0,5.0,29.91,WNW,293,0.0,4.0,73,0.00,,,-99.99,Weather View 32 v60,2013-01-02 08:25:00,
2013-01-02 03:30:00,11.8,4.8,29.91,WNW,293,0.0,4.0,73,0.00,,,-99.99,Weather View 32 v60,2013-01-02 08:30:00,
2013-01-02 03:35:00,11.8,4.8,29.91,WNW,293,0.0,4.0,73,0.00,,,-99.99,Weather View 32 v60,2013-01-02 08:35:00,
2013-01-02 03:40:00,11.7,4.7,29.91,WNW,293,0.0,4.0,73,0.00,,,-99.99,Weather View 32 v60,2013-01-02 08:40:00,
2013-01-02 03:45:00,11.7,4.7,29.91,WNW,293,0.0,4.0,73,0.00,,,-99.99,Weather View 32 v60,2013-01-02 08:45:00,
2013-01-02 03:55:00,11.5,4.5,29.91,West,270,0.0,3.0,73,0.00,,,-99.99,Weather View 32 v60,2013-01-02 08:55:00,
2013-01-02 04:00:00,11.5,4.8,29.91,SW,225,1.0,3.0,74,0.00,,,-99.99,Weather View 32 v60,2013-01-02 09:00:00,
2013-01-02 04:05:00,11.5,4.8,29.91,SW,225,0.0,3.0,74,0.00,,,-99.99,Weather View 32 v60,2013-01-02 09:05:00,
2013-01-02 04:10:00,11.5,5.1,29.91,SW,225,0.0,3.0,75,0.00,,,-99.99,Weather View 32 v60,2013-01-02 09:10:00,
2013-01-02 04:15:00,11.4,5.0,29.91,WNW,293,0.0,3.0,75,0.00,,,-99.99,Weather View 32 v60,2013-01-02 09:15:00,
2013-01-02 04:25:00,11.4,5.0,29.91,NW,315,0.0,4.0,75,0.00,,,-99.99,Weather View 32 v60,2013-01-02 09:25:00,
2013-01-02 04:30:00,11.4,5.0,29.92,West,270,1.0,4.0,75,0.00,,,-99.99,Weather View 32 v60,2013-01-02 09:30:00,
2013-01-02 04:35:00,11.6,5.2,29.92,SW,225,0.0,4.0,75,0.00,,,-99.99,Weather View 32 v60,2013-01-02 09:35:00,
2013-01-02 04:40:00,11.6,5.2,29.91,SW,225,0.0,4.0,75,0.00,,,-99.99,Weather View 32 v60,2013-01-02 09:40:00,
2013-01-02 04:45:00,11.6,5.2,29.91,WSW,248,0.0,4.0,75,0.00,,,-99.99,Weather View 32 v60,2013-01-02 09:45:00,
2013-01-02 04:50:00,11.6,4.6,29.91,WNW,293,1.0,3.0,73,0.00,,,-99.99,Weather View 32 v60,2013-01-02 09:50:00,
2013-01-02 05:00:00,11.7,5.6,29.91,South,180,0.0,4.0,76,0.00,,,-99.99,Weather View 32 v60,2013-01-02 10:00:00,
2013-01-02 05:05:00,11.7,5.9,29.91,NW,315,0.0,4.0,77,0.00,,,-99.99,Weather View 32 v60,2013-01-02 10:05:00,
2013-01-02 05:15:00,11.8,6.0,29.92,West,270,0.0,6.0,77,0.00,,,-99.99,Weather View 32 v60,2013-01-02 10:15:00,
2013-01-02 05:20:00,11.4,5.0,29.91,NW,315,0.0,4.0,75,0.00,,,-99.99,Weather View 32 v60,2013-01-02 10:20:00,
2013-01-02 05:35:00,11.8,6.0,29.91,WNW,293,0.0,6.0,77,0.00,,,-99.99,Weather View 32 v60,2013-01-02 10:35:00,
2013-01-02 05:55:00,11.7,5.6,29.91,SW,225,0.0,4.0,76,0.00,,,-99.99,Weather View 32 v60,2013-01-02 10:55:00,
2013-01-02 06:05:00,11.7,5.9,29.91,NW,315,0.0,4.0,77,0.00,,,-99.99,Weather View 32 v60,2013-01-02 11:05:00,
2013-01-02 06:10:00,11.7,5.9,29.92,WNW,293,0.0,6.0,77,0.00,,,-99.99,Weather View 32 v60,2013-01-02 11:10:00,
2013-01-02 06:20:00,11.8,6.0,29.91,WNW,293,1.0,6.0,77,0.00,,,-99.99,Weather View 32 v60,2013-01-02 11:20:00,
2013-01-02 06:25:00,11.9,6.1,29.91,East,90,0.0,6.0,77,0.00,,,-99.99,Weather View 32 v60,2013-01-02 11:25:00,
2013-01-02 06:30:00,11.8,6.0,29.91,West,270,0.0,6.0,77,0.00,,,-99.99,Weather View 32 v60,2013-01-02 11:30:00,
2013-01-02 06:40:00,11.9,6.1,29.91,SSW,203,0.0,6.0,77,0.00,,,-99.99,Weather View 32 v60,2013-01-02 11:40:00,
2013-01-02 06:50:00,11.9,6.4,29.91,SW,225,0.0,6.0,78,0.00,,,-99.99,Weather View 32 v60,2013-01-02 11:50:00,
2013-01-02 06:55:00,12.0,6.5,29.91,SW,225,0.0,6.0,78,0.00,,,-99.99,Weather View 32 v60,2013-01-02 11:55:00,
2013-01-02 07:05:00,11.9,6.1,29.91,South,180,0.0,6.0,77,0.00,,,-99.99,Weather View 32 v60,2013-01-02 12:05:00,
2013-01-02 07:10:00,11.8,6.3,29.91,South,180,0.0,6.0,78,0.00,,,-99.99,Weather View 32 v60,2013-01-02 12:10:00,
2013-01-02 07:15:00,11.8,6.3,29.90,South,180,3.0,6.0,78,0.00,,,-99.99,Weather View 32 v60,2013-01-02 12:15:00,
2013-01-02 07:25:00,11.8,6.3,29.90,SSE,158,2.0,4.0,78,0.00,,,-99.99,Weather View 32 v60,2013-01-02 12:25:00,
2013-01-02 07:30:00,11.8,6.3,29.90,NNE,23,0.0,4.0,78,0.00,,,-99.99,Weather View 32 v60,2013-01-02 12:30:00,
2013-01-02 07:35:00,11.6,6.1,29.91,NNE,23,0.0,4.0,78,0.00,,,-99.99,Weather View 32 v60,2013-01-02 12:35:00,
2013-01-02 07:45:00,11.7,6.5,29.90,South,180,0.0,4.0,79,0.00,,,-99.99,Weather View 32 v60,2013-01-02 12:45:00,
2013-01-02 07:55:00,12.0,6.7,29.91,WSW,248,0.0,4.0,79,0.00,,,-99.99,Weather View 32 v60,2013-01-02 12:55:00,
2013-01-02 08:05:00,12.3,7.0,29.90,SW,225,1.0,4.0,79,0.00,,,-99.99,Weather View 32 v60,2013-01-02 13:05:00,
2013-01-02 08:15:00,12.9,7.6,29.90,SW,225,2.0,4.0,79,0.00,,,-99.99,Weather View 32 v60,2013-01-02 13:15:00,
2013-01-02 08:25:00,13.7,8.4,29.89,SSW,203,3.0,5.0,79,0.00,,,-99.99,Weather View 32 v60,2013-01-02 13:25:00,
2013-01-02 08:30:00,14.3,8.7,29.89,WSW,248,1.0,7.0,78,0.00,,,-99.99,Weather View 32 v60,2013-01-02 13:30:00,
2013-01-02 08:35:00,14.7,9.1,29.89,WSW,248,2.0,7.0,78,0.00,,,-99.99,Weather View 32 v60,2013-01-02 13:35:00,
2013-01-02 08:45:00,15.7,9.5,29.89,WNW,293,4.0,7.0,76,0.00,,,-99.99,Weather View 32 v60,2013-01-02 13:45:00,
2013-01-02 08:55:00,16.6,10.1,29.89,WNW,293,3.0,7.0,75,0.00,,,-99.99,Weather View 32 v60,2013-01-02 13:55:00,
2013-01-02 09:05:00,17.8,10.9,29.90,WSW,248,2.0,7.0,74,0.00,,,-99.99,Weather View 32 v60,2013-01-02 14:05:00,
2013-01-02 09:10:00,18.4,11.2,29.90,SW,225,2.0,12.0,73,0.00,,,-99.99,Weather View 32 v60,2013-01-02 14:10:00,
2013-01-02 09:15:00,18.8,11.6,29.90,WSW,248,3.0,12.0,73,0.00,,,-99.99,Weather View 32 v60,2013-01-02 14:15:00,
2013-01-02 09:25:00,19.5,11.9,29.90,WNW,293,3.0,12.0,72,0.00,,,-99.99,Weather View 32 v60,2013-01-02 14:25:00,
2013-01-02 09:30:00,19.8,11.9,29.91,SSW,203,3.0,13.0,71,0.00,,,-99.99,Weather View 32 v60,2013-01-02 14:30:00,
2013-01-02 09:35:00,20.0,12.1,29.91,West,270,5.0,13.0,71,0.00,,,-99.99,Weather View 32 v60,2013-01-02 14:35:00,
2013-01-02 09:45:00,20.4,12.2,29.91,West,270,4.0,15.0,70,0.00,,,-99.99,Weather View 32 v60,2013-01-02 14:45:00,
2013-01-02 09:55:00,20.9,12.3,29.91,West,270,4.0,15.0,69,0.00,,,-99.99,Weather View 32 v60,2013-01-02 14:55:00,
2013-01-02 10:04:00,21.4,12.8,29.91,SW,225,2.0,15.0,69,0.00,,,-99.99,Weather View 32 v60,2013-01-02 15:04:00,
2013-01-02 10:10:00,21.6,13.0,29.90,WSW,248,4.0,15.0,69,0.00,,,-99.99,Weather View 32 v60,2013-01-02 15:10:00,
2013-01-02 10:15:00,21.9,13.3,29.90,NNW,338,4.0,15.0,69,0.00,,,-99.99,Weather View 32 v60,2013-01-02 15:15:00,
2013-01-02 10:25:00,22.5,13.9,29.90,West,270,3.0,15.0,69,0.00,,,-99.99,Weather View 32 v60,2013-01-02 15:25:00,
2013-01-02 10:35:00,23.1,14.1,29.89,WNW,293,2.0,15.0,68,0.00,,,-99.99,Weather View 32 v60,2013-01-02 15:35:00,
2013-01-02 10:40:00,23.4,14.4,29.89,WSW,248,6.0,12.0,68,0.00,,,-99.99,Weather View 32 v60,2013-01-02 15:40:00,
2013-01-02 10:45:00,23.7,14.7,29.89,SSW,203,3.0,12.0,68,0.00,,,-99.99,Weather View 32 v60,2013-01-02 15:45:00,
2013-01-02 10:55:00,24.2,14.8,29.89,North,0,5.0,13.0,67,0.00,,,-99.99,Weather View 32 v60,2013-01-02 15:55:00,
2013-01-02 11:00:00,24.4,14.7,29.89,WNW,293,5.0,13.0,66,0.00,,,-99.99,Weather View 32 v60,2013-01-02 16:00:00,
2013-01-02 11:10:00,25.0,15.2,29.88,NW,315,3.0,13.0,66,0.00,,,-99.99,Weather View 32 v60,2013-01-02 16:10:00,
2013-01-02 11:20:00,25.3,15.2,29.87,South,180,3.0,13.0,65,0.00,,,-99.99,Weather View 32 v60,2013-01-02 16:20:00,
2013-01-02 11:25:00,25.4,15.3,29.87,West,270,3.0,13.0,65,0.00,,,-99.99,Weather View 32 v60,2013-01-02 16:25:00,
2013-01-02 11:30:00,25.6,15.5,29.87,NW,315,5.0,13.0,65,0.00,,,-99.99,Weather View 32 v60,2013-01-02 16:30:00,
2013-01-02 11:35:00,25.9,15.8,29.87,WNW,293,3.0,13.0,65,0.00,,,-99.99,Weather View 32 v60,2013-01-02 16:35:00,
2013-01-02 11:45:00,26.4,16.2,29.87,WSW,248,4.0,13.0,65,0.00,,,-99.99,Weather View 32 v60,2013-01-02 16:45:00,
2013-01-02 11:50:00,26.5,16.0,29.86,NW,315,4.0,11.0,64,0.00,,,-99.99,Weather View 32 v60,2013-01-02 16:50:00,
2013-01-02 11:55:00,26.6,16.1,29.87,WNW,293,2.0,10.0,64,0.00,,,-99.99,Weather View 32 v60,2013-01-02 16:55:00,
2013-01-02 12:05:00,26.8,15.9,29.86,NNW,338,4.0,12.0,63,0.00,,,-99.99,Weather View 32 v60,2013-01-02 17:05:00,
2013-01-02 12:10:00,26.8,15.9,29.86,WNW,293,6.0,12.0,63,0.00,,,-99.99,Weather View 32 v60,2013-01-02 17:10:00,
2013-01-02 12:15:00,26.9,16.0,29.86,South,180,6.0,12.0,63,0.00,,,-99.99,Weather View 32 v60,2013-01-02 17:15:00,
2013-01-02 12:25:00,27.1,16.2,29.86,NNW,338,4.0,12.0,63,0.00,,,-99.99,Weather View 32 v60,2013-01-02 17:25:00,
2013-01-02 12:30:00,27.1,16.2,29.86,WNW,293,4.0,14.0,63,0.00,,,-99.99,Weather View 32 v60,2013-01-02 17:30:00,
2013-01-02 12:35:00,27.2,16.3,29.86,West,270,3.0,14.0,63,0.00,,,-99.99,Weather View 32 v60,2013-01-02 17:35:00,
2013-01-02 12:45:00,27.3,16.0,29.86,WNW,293,6.0,14.0,62,0.00,,,-99.99,Weather View 32 v60,2013-01-02 17:45:00,
2013-01-02 12:55:00,27.4,16.1,29.85,NNW,338,5.0,14.0,62,0.00,,,-99.99,Weather View 32 v60,2013-01-02 17:55:00,
2013-01-02 13:05:00,27.4,16.1,29.86,WNW,293,6.0,15.0,62,0.00,,,-99.99,Weather View 32 v60,2013-01-02 18:05:00,
2013-01-02 13:10:00,27.5,16.6,29.86,WNW,293,5.0,15.0,63,0.00,,,-99.99,Weather View 32 v60,2013-01-02 18:10:00,
2013-01-02 13:15:00,27.5,16.6,29.86,NNW,338,6.0,15.0,63,0.00,,,-99.99,Weather View 32 v60,2013-01-02 18:15:00,
2013-01-02 13:25:00,27.6,16.6,29.86,NW,315,1.0,15.0,63,0.00,,,-99.99,Weather View 32 v60,2013-01-02 18:25:00,
2013-01-02 13:30:00,27.6,16.6,29.87,WNW,293,6.0,15.0,63,0.00,,,-99.99,Weather View 32 v60,2013-01-02 18:30:00,
2013-01-02 13:35:00,27.6,16.6,29.86,NW,315,2.0,15.0,63,0.00,,,-99.99,Weather View 32 v60,2013-01-02 18:35:00,
2013-01-02 13:45:00,27.7,17.1,29.87,NNW,338,1.0,15.0,64,0.00,,,-99.99,Weather View 32 v60,2013-01-02 18:45:00,
2013-01-02 13:50:00,27.8,17.2,29.87,NNW,338,4.0,15.0,64,0.00,,,-99.99,Weather View 32 v60,2013-01-02 18:50:00,
2013-01-02 13:55:00,27.9,17.3,29.87,WSW,248,8.0,15.0,64,0.00,,,-99.99,Weather View 32 v60,2013-01-02 18:55:00,
2013-01-02 14:05:00,27.9,17.3,29.88,NW,315,6.0,13.0,64,0.00,,,-99.99,Weather View 32 v60,2013-01-02 19:05:00,
2013-01-02 14:10:00,27.9,17.7,29.88,NW,315,10.0,13.0,65,0.00,,,-99.99,Weather View 32 v60,2013-01-02 19:10:00,
2013-01-02 14:15:00,27.9,17.7,29.88,WNW,293,4.0,12.0,65,0.00,,,-99.99,Weather View 32 v60,2013-01-02 19:15:00,
2013-01-02 14:25:00,27.4,17.5,29.89,NNW,338,6.0,12.0,66,0.00,,,-99.99,Weather View 32 v60,2013-01-02 19:25:00,
2013-01-02 14:35:00,27.0,18.2,29.90,NNW,338,5.0,12.0,69,0.00,,,-99.99,Weather View 32 v60,2013-01-02 19:35:00,
2013-01-02 14:40:00,26.8,18.3,29.90,North,0,4.0,12.0,70,0.00,,,-99.99,Weather View 32 v60,2013-01-02 19:40:00,
2013-01-02 14:45:00,26.7,18.2,29.91,NW,315,6.0,12.0,70,0.00,,,-99.99,Weather View 32 v60,2013-01-02 19:45:00,
2013-01-02 14:50:00,26.6,18.5,29.91,NNW,338,4.0,12.0,71,0.00,,,-99.99,Weather View 32 v60,2013-01-02 19:50:00,
2013-01-02 14:55:00,26.5,18.7,29.91,NNW,338,6.0,12.0,72,0.00,,,-99.99,Weather View 32 v60,2013-01-02 19:55:00,
2013-01-02 15:05:00,26.2,18.7,29.91,West,270,3.0,12.0,73,0.00,,,-99.99,Weather View 32 v60,2013-01-02 20:05:00,
2013-01-02 15:10:00,26.1,18.6,29.92,WNW,293,4.0,12.0,73,0.00,,,-99.99,Weather View 32 v60,2013-01-02 20:10:00,
2013-01-02 15:15:00,25.9,18.4,29.92,WNW,293,5.0,12.0,73,0.00,,,-99.99,Weather View 32 v60,2013-01-02 20:15:00,
2013-01-02 15:25:00,25.5,18.7,29.92,WNW,293,6.0,12.0,75,0.00,,,-99.99,Weather View 32 v60,2013-01-02 20:25:00,
2013-01-02 15:35:00,25.1,18.6,29.92,NW,315,4.0,12.0,76,0.00,,,-99.99,Weather View 32 v60,2013-01-02 20:35:00,
2013-01-02 15:45:00,24.8,18.0,29.93,NW,315,3.0,12.0,75,0.00,,,-99.99,Weather View 32 v60,2013-01-02 20:45:00,
2013-01-02 15:55:00,24.7,17.6,29.93,NW,315,3.0,11.0,74,0.00,,,-99.99,Weather View 32 v60,2013-01-02 20:55:00,
2013-01-02 16:05:00,24.5,16.4,29.93,NNW,338,5.0,11.0,71,0.00,,,-99.99,Weather View 32 v60,2013-01-02 21:05:00,
2013-01-02 16:13:00,24.4,16.0,29.94,NW,315,4.0,11.0,70,0.00,,,-99.99,Weather View 32 v60,2013-01-02 21:13:00,
2013-01-02 16:20:00,24.2,15.2,29.95,NNW,338,5.0,11.0,68,0.00,,,-99.99,Weather View 32 v60,2013-01-02 21:20:00,
2013-01-02 16:30:00,24.0,14.6,29.95,NNW,338,3.0,10.0,67,0.00,,,-99.99,Weather View 32 v60,2013-01-02 21:30:00,
2013-01-02 16:40:00,23.9,14.5,29.95,WNW,293,7.0,10.0,67,0.00,,,-99.99,Weather View 32 v60,2013-01-02 21:40:00,
2013-01-02 16:45:00,23.8,14.1,29.96,NNW,338,5.0,10.0,66,0.00,,,-99.99,Weather View 32 v60,2013-01-02 21:45:00,
2013-01-02 16:55:00,23.5,13.1,29.96,WNW,293,7.0,15.0,64,0.00,,,-99.99,Weather View 32 v60,2013-01-02 21:55:00,
2013-01-02 17:05:00,23.4,12.7,29.97,NW,315,3.0,15.0,63,0.00,,,-99.99,Weather View 32 v60,2013-01-02 22:05:00,
2013-01-02 17:13:00,23.3,12.2,29.97,NNW,338,9.0,15.0,62,0.00,,,-99.99,Weather View 32 v60,2013-01-02 22:13:00,
2013-01-02 17:20:00,23.1,12.0,29.97,North,0,4.0,16.0,62,0.00,,,-99.99,Weather View 32 v60,2013-01-02 22:20:00,
2013-01-02 17:25:00,23.1,12.0,29.98,NW,315,7.0,16.0,62,0.00,,,-99.99,Weather View 32 v60,2013-01-02 22:25:00,
2013-01-02 17:35:00,22.9,11.8,29.98,WNW,293,4.0,16.0,62,0.00,,,-99.99,Weather View 32 v60,2013-01-02 22:35:00,
2013-01-02 17:40:00,22.8,11.7,29.98,NNW,338,9.0,20.0,62,0.00,,,-99.99,Weather View 32 v60,2013-01-02 22:40:00,
2013-01-02 17:50:00,22.6,11.2,29.98,NNW,338,7.0,20.0,61,0.00,,,-99.99,Weather View 32 v60,2013-01-02 22:50:00,
2013-01-02 18:00:00,22.4,10.6,29.98,West,270,9.0,20.0,60,0.00,,,-99.99,Weather View 32 v60,2013-01-02 23:00:00,
2013-01-02 18:10:00,22.2,10.8,30.00,NNW,338,3.0,20.0,61,0.00,,,-99.99,Weather View 32 v60,2013-01-02 23:10:00,
2013-01-02 18:15:00,22.0,10.2,30.00,North,0,4.0,20.0,60,0.00,,,-99.99,Weather View 32 v60,2013-01-02 23:15:00,
2013-01-02 18:25:00,21.7,10.3,30.00,WNW,293,3.0,20.0,61,0.00,,,-99.99,Weather View 32 v60,2013-01-02 23:25:00,
2013-01-02 18:30:00,21.6,10.2,30.00,NNW,338,5.0,20.0,61,0.00,,,-99.99,Weather View 32 v60,2013-01-02 23:30:00,
2013-01-02 18:40:00,21.3,9.9,30.00,NW,315,6.0,19.0,61,0.00,,,-99.99,Weather View 32 v60,2013-01-02 23:40:00,
2013-01-02 18:45:00,21.2,9.9,30.00,NNE,23,3.0,19.0,61,0.00,,,-99.99,Weather View 32 v60,2013-01-02 23:45:00,
2013-01-02 18:55:00,20.8,9.8,30.01,NNW,338,6.0,19.0,62,0.00,,,-99.99,Weather View 32 v60,2013-01-02 23:55:00,
2013-01-02 19:00:00,20.7,9.4,30.01,NW,315,7.0,15.0,61,0.00,,,-99.99,Weather View 32 v60,2013-01-03 00:00:00,
2013-01-02 19:10:00,20.5,9.9,30.01,WNW,293,4.0,15.0,63,0.00,,,-99.99,Weather View 32 v60,2013-01-03 00:10:00,
2013-01-02 19:15:00,20.5,9.9,30.01,West,270,5.0,15.0,63,0.00,,,-99.99,Weather View 32 v60,2013-01-03 00:15:00,
2013-01-02 19:25:00,20.3,9.7,30.01,WNW,293,4.0,15.0,63,0.00,,,-99.99,Weather View 32 v60,2013-01-03 00:25:00,
2013-01-02 19:40:00,20.0,9.4,30.02,NW,315,3.0,15.0,63,0.00,,,-99.99,Weather View 32 v60,2013-01-03 00:40:00,
2013-01-02 19:45:00,19.8,9.2,30.02,NW,315,4.0,15.0,63,0.00,,,-99.99,Weather View 32 v60,2013-01-03 00:45:00,
2013-01-02 19:55:00,19.5,9.0,30.02,NW,315,6.0,15.0,63,0.00,,,-99.99,Weather View 32 v60,2013-01-03 00:55:00,
2013-01-02 20:00:00,19.4,9.2,30.02,WNW,293,4.0,15.0,64,0.00,,,-99.99,Weather View 32 v60,2013-01-03 01:00:00,
2013-01-02 20:10:00,18.9,8.7,30.03,NNW,338,7.0,15.0,64,0.00,,,-99.99,Weather View 32 v60,2013-01-03 01:10:00,
2013-01-02 20:15:00,18.7,8.2,30.03,NW,315,6.0,16.0,63,0.00,,,-99.99,Weather View 32 v60,2013-01-03 01:15:00,
2013-01-02 20:25:00,18.2,7.7,30.02,WNW,293,6.0,16.0,63,0.00,,,-99.99,Weather View 32 v60,2013-01-03 01:25:00,
2013-01-02 20:35:00,17.8,7.7,30.04,NNW,338,6.0,16.0,64,0.00,,,-99.99,Weather View 32 v60,2013-01-03 01:35:00,
2013-01-02 20:40:00,17.6,7.5,30.04,NNW,338,4.0,16.0,64,0.00,,,-99.99,Weather View 32 v60,2013-01-03 01:40:00,
2013-01-02 20:50:00,17.2,7.5,30.04,WNW,293,5.0,16.0,65,0.00,,,-99.99,Weather View 32 v60,2013-01-03 01:50:00,
2013-01-02 21:00:00,16.8,7.1,30.05,NW,315,5.0,16.0,65,0.00,,,-99.99,Weather View 32 v60,2013-01-03 02:00:00,
2013-01-02 21:05:00,16.6,6.9,30.04,WNW,293,4.0,16.0,65,0.00,,,-99.99,Weather View 32 v60,2013-01-03 02:05:00,
2013-01-02 21:10:00,16.3,6.3,30.05,NNW,338,5.0,16.0,64,0.00,,,-99.99,Weather View 32 v60,2013-01-03 02:10:00,
2013-01-02 21:15:00,15.8,5.8,30.05,NNW,338,5.0,14.0,64,0.00,,,-99.99,Weather View 32 v60,2013-01-03 02:15:00,
2013-01-02 21:25:00,15.2,5.2,30.06,WNW,293,6.0,14.0,64,0.00,,,-99.99,Weather View 32 v60,2013-01-03 02:25:00,
2013-01-02 21:30:00,14.9,4.9,30.06,North,0,7.0,14.0,64,0.00,,,-99.99,Weather View 32 v60,2013-01-03 02:30:00,
2013-01-02 21:40:00,14.4,4.5,30.07,North,0,4.0,14.0,64,0.00,,,-99.99,Weather View 32 v60,2013-01-03 02:40:00,
2013-01-02 21:50:00,13.9,4.0,30.07,NNW,338,11.0,14.0,64,0.00,,,-99.99,Weather View 32 v60,2013-01-03 02:50:00,
2013-01-02 21:55:00,13.7,4.1,30.07,NW,315,3.0,14.0,65,0.00,,,-99.99,Weather View 32 v60,2013-01-03 02:55:00,
2013-01-02 22:00:00,13.5,3.9,30.07,WNW,293,6.0,14.0,65,0.00,,,-99.99,Weather View 32 v60,2013-01-03 03:00:00,
2013-01-02 22:10:00,13.1,3.5,30.07,NNW,338,3.0,13.0,65,0.00,,,-99.99,Weather View 32 v60,2013-01-03 03:10:00,
2013-01-02 22:15:00,12.9,3.4,30.07,NW,315,3.0,13.0,65,0.00,,,-99.99,Weather View 32 v60,2013-01-03 03:15:00,
2013-01-02 22:25:00,12.5,3.0,30.07,WNW,293,4.0,13.0,65,0.00,,,-99.99,Weather View 32 v60,2013-01-03 03:25:00,
2013-01-02 22:30:00,12.4,3.2,30.07,NW,315,9.0,12.0,66,0.00,,,-99.99,Weather View 32 v60,2013-01-03 03:30:00,
2013-01-02 22:40:00,12.0,2.5,30.07,West,270,3.0,12.0,65,0.00,,,-99.99,Weather View 32 v60,2013-01-03 03:40:00,
2013-01-02 22:50:00,11.8,2.3,30.07,WNW,293,7.0,16.0,65,0.00,,,-99.99,Weather View 32 v60,2013-01-03 03:50:00,
2013-01-02 23:00:00,11.5,2.0,30.07,WNW,293,3.0,16.0,65,0.00,,,-99.99,Weather View 32 v60,2013-01-03 04:00:00,
2013-01-02 23:05:00,9.6,-0.5,30.08,WNW,293,3.0,11.0,63,0.00,,,-99.99,Weather View 32 v60,2013-01-03 04:05:00,
2013-01-02 23:10:00,11.3,1.8,30.07,WNW,293,2.0,16.0,65,0.00,,,-99.99,Weather View 32 v60,2013-01-03 04:10:00,
2013-01-02 23:15:00,11.1,2.0,30.07,NNW,338,1.0,16.0,66,0.00,,,-99.99,Weather View 32 v60,2013-01-03 04:15:00,
2013-01-02 23:20:00,9.1,-1.3,30.08,NNW,338,5.0,12.0,62,0.00,,,-99.99,Weather View 32 v60,2013-01-03 04:20:00,
2013-01-02 23:25:00,10.9,1.8,30.08,NW,315,3.0,16.0,66,0.00,,,-99.99,Weather View 32 v60,2013-01-03 04:25:00,
2013-01-02 23:30:00,8.9,-1.8,30.08,WNW,293,7.0,12.0,61,0.00,,,-99.99,Weather View 32 v60,2013-01-03 04:30:00,
2013-01-02 23:35:00,10.6,1.2,30.07,NNW,338,0.0,16.0,65,0.00,,,-99.99,Weather View 32 v60,2013-01-03 04:35:00,
2013-01-02 23:40:00,10.4,1.0,30.07,NNW,338,4.0,16.0,65,0.00,,,-99.99,Weather View 32 v60,2013-01-03 04:40:00,
2013-01-02 23:45:00,8.4,-2.3,30.10,WNW,293,5.0,15.0,61,0.00,,,-99.99,Weather View 32 v60,2013-01-03 04:45:00,
2013-01-02 23:50:00,10.0,-0.1,30.07,WNW,293,0.0,11.0,63,0.00,,,-99.99,Weather View 32 v60,2013-01-03 04:50:00,
2013-01-02 23:55:00,9.9,-0.2,30.07,NNW,338,3.0,11.0,63,0.00,,,-99.99,Weather View 32 v60,2013-01-03 04:55:00,